Location: Fayetteville
(35.0530°N, 78.8790°W)
Time: 17:16:08
(UTC-05:00)

Hubble Space Telescope - Pass Details

Date: 03 December 2021
Orbit: 534 x 538 km, 28.5° (Epoch: 28 January)

Event Time Altitude Azimuth Distance (km) Brightness Sun altitude
Exits shadow 05:04:20 22° 180° (S) 1,198 2.6 -24.6°
Drops below altitude 10° 05:06:58 10° 142° (SE) 1,771 4.0 -24.1°
Sets 05:09:34 0° 127° (SE) 2,660 5.4 -23.5°
